Location: Rockford
(42.2710°N, 89.0940°W)
Time: 17:22:41
(UTC-05:00)

SPOT 5 - Visible Passes

Search period start: 24 July 2016 00:00
Search period end: 03 August 2016 00:00
Orbit: 624 x 815 km, 98.5° (Epoch: 24 July)

Date Brightness Start Highest point End Pass type
(mag) Time Alt. Az. Time Alt. Az. Time Alt. Az.
24 Jul 3.8 22:08:05 12° S 22:12:42 51° W 22:17:55 10° NNW visible
25 Jul 3.3 21:17:38 10° SSE 21:22:46 57° ENE 21:28:02 10° N visible
25 Jul 5.3 22:57:30 10° SW 23:01:10 19° W 23:04:55 10° NW visible
26 Jul 3.7 22:06:18 13° S 22:10:50 54° W 22:16:07 10° NNW visible
27 Jul 3.4 21:15:48 10° SSE 21:20:57 55° ENE 21:26:11 10° N visible
27 Jul 5.2 22:55:29 10° SW 22:59:18 20° W 23:03:10 10° NW visible
28 Jul 3.6 22:04:31 14° S 22:09:00 56° W 22:14:17 10° NNW visible
29 Jul 3.4 21:14:01 10° SE 21:19:07 53° ENE 21:24:20 10° N visible
29 Jul 5.2 22:53:30 10° SW 22:57:26 21° W 23:01:25 10° NW visible
30 Jul 3.6 22:02:47 15° S 22:07:10 59° W 22:12:28 10° NNW visible
31 Jul 3.4 21:12:17 11° SE 21:17:17 51° ENE 21:22:28 10° N visible
31 Jul 5.1 22:51:32 10° SW 22:55:34 22° W 22:59:39 10° NW visible
01 Aug 3.5 22:01:03 16° S 22:05:19 61° W 22:10:38 10° NNW visible
02 Aug 3.5 21:10:33 11° SE 21:15:27 49° ENE 21:20:36 10° N visible
02 Aug 5.0 22:49:48 11° SW 22:53:42 23° W 22:57:53 10° NW visible
